This is the latest recevied weather packets stored in our database for station/object N4WFF. If no packets are shown the sender has not sent any weather packets the latest 10 day(s).
| Time | Temp. | Humidity | Pressure | Rain* | Wind** | Luminosity | Snow |
|---|---|---|---|---|---|---|---|
| 1777844455 | 23.89° C | 36% | 1017.7 hPa | 0 mm | - | 458 W/m² | - |
| 1777844156 | 23.89° C | 35% | 1017.7 hPa | 0 mm | - | 476 W/m² | - |
| 1777843856 | 23.33° C | 35% | 1017.7 hPa | 0 mm | - | 492 W/m² | - |
| 1777843555 | 23.33° C | 38% | 1017.7 hPa | 0 mm | - | 509 W/m² | - |
| 1777843255 | 23.33° C | 37% | 1017.9 hPa | 0 mm | - | 526 W/m² | - |
| 1777842956 | 23.89° C | 38% | 1017.9 hPa | 0 mm | - | 543 W/m² | - |
| 1777842656 | 23.89° C | 37% | 1018 hPa | 0 mm | - | 561 W/m² | - |
| 1777842357 | 23.33° C | 38% | 1017.9 hPa | 0 mm | - | 580 W/m² | - |
| 1777842056 | 23.89° C | 37% | 1017.9 hPa | 0 mm | - | 595 W/m² | - |
| 1777841755 | 23.33° C | 36% | 1018 hPa | 0 mm | - | 615 W/m² | - |
| 1777841456 | 23.33° C | 36% | 1018.1 hPa | 0 mm | - | 632 W/m² | - |
| 1777841156 | 23.33° C | 35% | 1018.2 hPa | 0 mm | - | 649 W/m² | - |
| 1777840855 | 23.33° C | 34% | 1018.3 hPa | 0 mm | - | 665 W/m² | - |
| 1777840557 | 23.33° C | 36% | 1018.3 hPa | 0 mm | - | 683 W/m² | - |
| 1777840256 | 23.89° C | 37% | 1018.4 hPa | 0 mm | - | 696 W/m² | - |
| 1777839955 | 23.89° C | 35% | 1018.5 hPa | 0 mm | - | 713 W/m² | - |
| 1777839655 | 23.89° C | 35% | 1018.7 hPa | 0 mm | - | 729 W/m² | - |
| 1777839355 | 23.89° C | 37% | 1018.7 hPa | 0 mm | - | 740 W/m² | - |
| 1777839055 | 23.33° C | 37% | 1018.7 hPa | 0 mm | - | 756 W/m² | - |
| 1777838756 | 23.33° C | 38% | 1018.8 hPa | 0 mm | - | 771 W/m² | - |
| 1777838455 | 23.89° C | 35% | 1019 hPa | 0 mm | - | 784 W/m² | - |
| 1777838156 | 23.33° C | 38% | 1019.1 hPa | 0 mm | - | 799 W/m² | - |
| 1777837855 | 23.33° C | 38% | 1019.1 hPa | 0 mm | - | 813 W/m² | - |
| 1777837555 | 23.33° C | 38% | 1019.2 hPa | 0 mm | - | 823 W/m² | - |
| 1777837255 | 23.33° C | 37% | 1019.2 hPa | 0 mm | - | 835 W/m² | - |
* Rain latest hour (hover to see other rain measurements)
** Current wind speed in m/s (hover to see current wind gust speed)